Find Starlink 30784

NORAD ID: 58156 Int'l Des: 2023-166 Owner: SPXS Country: US Constellation: starlink operational
LEOCIRCULAR

現在のビュー

3D地球を読み込み中...

About Starlink 30784

Starlink 30784 (NORAD 58156) is a starlink constellation satellite (v2 mini) launched Oct 29, 2023 by SPXS of US. It operates in LEO, CIRCULAR orbit with a mass of 730.00 kg.

次回通過

Passes for default location (London). Set your location on the main map for personalized predictions.

高度履歴

Loading altitude history...

軌道要素

1 58156U 23166G 26263.55266972 -.00003956 00000-0 -10613-3 0 9993
2 58156 53.1603 33.7818 0000859 77.4755 282.6343 15.34365920162872
Epoch: Sep 20, 2026 • Age: 18 hours

現在のステータス

高度 464.8 km
遠地点 / 近地点 N/A
速度 7.63 km/s
衛星直下点 -5.62°S, 105.22°E
打ち上げ日 Oct 29, 2023
運用期間 2.8 years
タイプ internet

技術仕様

分類 Payload
質量 730.00 kg
乾燥質量 700.00 kg
長さ 0.30 m
スパン 29.00 m
形状 ? Box + pan
製造者 SPXS
バスタイプ Starlink V2M
フェーズステータス In Orbit
所有者/国 SPXS/US

Most Searched